JBU1245 KISP-KPBI

Flight info

Callsign JBU1245
Flight time 2h 33m
Altitude 36000
Route BEADS EMJAY Q167 ZJAAY KALDA Q131 WAALT Y289 DULEE CLMNT2
Aircraft A320/M-SDFGHIJ4RWX/LB1D1

Departure

Time 2026-05-07 09:33
Airport Long Island MacArthur Airport (KISP)

Arrival

Time 2026-05-07 12:07
Airport Palm Beach International Airport (KPBI)
Time Latitude Longitude Altitude Speed Heading
2026-05-07 09:21 40.79037 -73.09728 114 ft 0 kts 180°
2026-05-07 09:25 40.79038 -73.09728 113 ft 2 kts 180°
2026-05-07 09:26 40.79064 -73.09727 113 ft 4 kts 188°
2026-05-07 09:26 40.79090 -73.09719 113 ft 4 kts 204°
2026-05-07 09:26 40.79110 -73.09699 113 ft 4 kts 248°
2026-05-07 09:26 40.79113 -73.09687 113 ft 0 kts 270°
2026-05-07 09:28 40.79113 -73.09688 113 ft 0 kts 270°
2026-05-07 09:29 40.79113 -73.09708 113 ft 4 kts 270°
2026-05-07 09:29 40.79112 -73.09765 113 ft 8 kts 270°
2026-05-07 09:29 40.79112 -73.09856 113 ft 12 kts 270°
2026-05-07 09:29 40.79112 -73.09983 113 ft 16 kts 270°
2026-05-07 09:30 40.79113 -73.10145 113 ft 19 kts 271°
2026-05-07 09:30 40.79114 -73.10337 113 ft 23 kts 270°
2026-05-07 09:30 40.79115 -73.10515 113 ft 15 kts 270°
2026-05-07 09:30 40.79115 -73.10665 113 ft 12 kts 270°
2026-05-07 09:31 40.79073 -73.10763 113 ft 15 kts 226°
2026-05-07 09:31 40.78991 -73.10870 113 ft 19 kts 224°
2026-05-07 09:31 40.78890 -73.11002 113 ft 22 kts 225°
2026-05-07 09:31 40.78821 -73.11092 113 ft 10 kts 224°
2026-05-07 09:32 40.78831 -73.11149 113 ft 9 kts 315°
2026-05-07 09:32 40.78873 -73.11204 113 ft 7 kts 318°
2026-05-07 09:32 40.78914 -73.11180 113 ft 9 kts 46°
2026-05-07 09:32 40.79078 -73.10963 113 ft 71 kts 45°
2026-05-07 09:33 40.79608 -73.10262 114 ft 143 kts 44°
2026-05-07 09:33 40.80387 -73.09235 532 ft 159 kts 42°
2026-05-07 09:33 40.81187 -73.08212 1307 ft 161 kts 41°
2026-05-07 09:33 40.82009 -73.07182 1984 ft 167 kts 40°
2026-05-07 09:34 40.82884 -73.06066 2295 ft 183 kts 40°
2026-05-07 09:34 40.83822 -73.04845 2658 ft 196 kts 40°
2026-05-07 09:34 40.84826 -73.03542 2899 ft 219 kts 40°
2026-05-07 09:34 40.85976 -73.02054 3199 ft 242 kts 40°
2026-05-07 09:35 40.87214 -73.00451 3705 ft 257 kts 40°
2026-05-07 09:35 40.88447 -72.98655 4256 ft 273 kts 54°
2026-05-07 09:35 40.89067 -72.96251 4931 ft 284 kts 85°
2026-05-07 09:35 40.88753 -72.93687 5638 ft 287 kts 115°
2026-05-07 09:36 40.87770 -72.91386 6353 ft 289 kts 126°
2026-05-07 09:36 40.86695 -72.89118 7075 ft 294 kts 124°
2026-05-07 09:36 40.85721 -72.86755 7771 ft 300 kts 121°
2026-05-07 09:36 40.84807 -72.84253 8463 ft 305 kts 120°
2026-05-07 09:37 40.83895 -72.81710 9147 ft 308 kts 121°
2026-05-07 09:37 40.82947 -72.79150 9827 ft 312 kts 122°
2026-05-07 09:37 40.81961 -72.76574 10406 ft 319 kts 123°
2026-05-07 09:37 40.80922 -72.73900 10718 ft 336 kts 123°
2026-05-07 09:38 40.79826 -72.71074 10947 ft 355 kts 123°
2026-05-07 09:38 40.78689 -72.68107 11211 ft 370 kts 123°
2026-05-07 09:38 40.77493 -72.65091 11490 ft 380 kts 128°
2026-05-07 09:38 40.75813 -72.62405 11725 ft 380 kts 146°
2026-05-07 09:39 40.73580 -72.60671 12116 ft 369 kts 168°
2026-05-07 09:39 40.71111 -72.60085 12664 ft 356 kts 186°
2026-05-07 09:39 40.68706 -72.60536 13179 ft 347 kts 202°
2026-05-07 09:39 40.66565 -72.61906 13695 ft 341 kts 218°
2026-05-07 09:40 40.64738 -72.63884 14220 ft 340 kts 224°
2026-05-07 09:40 40.63010 -72.65965 14731 ft 342 kts 225°
2026-05-07 09:40 40.61253 -72.68089 15246 ft 344 kts 225°
2026-05-07 09:40 40.59456 -72.70183 15750 ft 346 kts 224°
2026-05-07 09:41 40.57623 -72.72246 16257 ft 348 kts 223°
2026-05-07 09:41 40.55771 -72.74301 16749 ft 349 kts 223°
2026-05-07 09:41 40.53911 -72.76369 17223 ft 351 kts 224°
2026-05-07 09:41 40.52052 -72.78455 17687 ft 352 kts 224°
2026-05-07 09:42 40.50190 -72.80556 18149 ft 354 kts 224°
2026-05-07 09:42 40.48319 -72.82666 18619 ft 355 kts 224°
2026-05-07 09:42 40.46469 -72.84748 19055 ft 356 kts 224°
2026-05-07 09:42 40.44582 -72.86866 19492 ft 357 kts 225°
2026-05-07 09:43 40.42687 -72.88989 19942 ft 358 kts 225°
2026-05-07 09:43 40.40787 -72.91114 20362 ft 360 kts 225°
2026-05-07 09:43 40.38880 -72.93248 20783 ft 361 kts 225°
2026-05-07 09:43 40.36969 -72.95387 21182 ft 362 kts 225°
2026-05-07 09:44 40.35054 -72.97531 21571 ft 363 kts 225°
2026-05-07 09:44 40.33131 -72.99682 21957 ft 364 kts 225°
2026-05-07 09:44 40.31202 -73.01838 22330 ft 365 kts 225°
2026-05-07 09:44 40.29292 -73.03969 22693 ft 366 kts 225°
2026-05-07 09:45 40.27351 -73.06131 23061 ft 367 kts 225°
2026-05-07 09:45 40.25404 -73.08297 23413 ft 368 kts 225°
2026-05-07 09:45 40.23451 -73.10470 23751 ft 369 kts 225°
2026-05-07 09:45 40.21496 -73.12647 24084 ft 370 kts 226°
2026-05-07 09:46 40.19531 -73.14832 24403 ft 371 kts 226°
2026-05-07 09:46 40.17561 -73.17019 24721 ft 372 kts 226°
2026-05-07 09:46 40.15584 -73.19208 25044 ft 373 kts 226°
2026-05-07 09:46 40.13628 -73.21374 25354 ft 374 kts 226°
2026-05-07 09:47 40.11643 -73.23573 25649 ft 375 kts 226°
2026-05-07 09:47 40.09649 -73.25781 25948 ft 376 kts 227°
2026-05-07 09:47 40.07651 -73.27997 26227 ft 377 kts 227°
2026-05-07 09:47 40.05657 -73.30230 26508 ft 378 kts 227°
2026-05-07 09:48 40.03667 -73.32474 26785 ft 379 kts 227°
2026-05-07 09:48 40.01668 -73.34726 27053 ft 380 kts 227°
2026-05-07 09:48 39.99664 -73.36978 27306 ft 381 kts 228°
2026-05-07 09:48 39.97649 -73.39235 27493 ft 384 kts 227°
2026-05-07 09:49 39.95638 -73.41478 27706 ft 386 kts 227°
2026-05-07 09:49 39.93601 -73.43741 28077 ft 384 kts 227°
2026-05-07 09:49 39.91576 -73.45990 28440 ft 382 kts 228°
2026-05-07 09:49 39.89560 -73.48234 28792 ft 380 kts 228°
2026-05-07 09:50 39.87557 -73.50468 29151 ft 378 kts 229°
2026-05-07 09:50 39.85566 -73.52692 29461 ft 377 kts 229°
2026-05-07 09:50 39.83577 -73.54905 29848 ft 374 kts 229°
2026-05-07 09:50 39.81600 -73.57101 30191 ft 373 kts 229°
2026-05-07 09:51 39.79664 -73.59254 30563 ft 370 kts 229°
2026-05-07 09:51 39.77712 -73.61428 30874 ft 369 kts 229°
2026-05-07 09:51 39.75770 -73.63593 31219 ft 367 kts 230°
2026-05-07 09:51 39.73836 -73.65748 31509 ft 366 kts 230°
2026-05-07 09:52 39.71904 -73.67893 31836 ft 364 kts 230°
2026-05-07 09:52 39.69982 -73.70021 32134 ft 363 kts 230°
2026-05-07 09:52 39.68062 -73.72144 32427 ft 362 kts 230°
2026-05-07 09:52 39.66152 -73.74256 32736 ft 360 kts 231°
2026-05-07 09:53 39.64277 -73.76333 32996 ft 359 kts 231°
2026-05-07 09:53 39.62379 -73.78435 33269 ft 358 kts 231°
2026-05-07 09:53 39.60488 -73.80524 33529 ft 357 kts 231°
2026-05-07 09:53 39.58600 -73.82608 33770 ft 356 kts 231°
2026-05-07 09:54 39.56717 -73.84686 34016 ft 355 kts 231°
2026-05-07 09:54 39.54841 -73.86755 34271 ft 354 kts 231°
2026-05-07 09:54 39.52970 -73.88817 34513 ft 352 kts 231°
2026-05-07 09:54 39.51106 -73.90866 34755 ft 351 kts 231°
2026-05-07 09:55 39.49269 -73.92886 34945 ft 351 kts 232°
2026-05-07 09:55 39.47410 -73.94932 35140 ft 351 kts 232°
2026-05-07 09:55 39.45554 -73.96972 35322 ft 351 kts 232°
2026-05-07 09:55 39.43694 -73.99015 35502 ft 350 kts 232°
2026-05-07 09:56 39.41838 -74.01050 35698 ft 349 kts 232°
2026-05-07 09:56 39.39988 -74.03073 35937 ft 347 kts 232°
2026-05-07 09:56 39.38156 -74.05075 35933 ft 344 kts 232°
2026-05-07 09:57 39.34497 -74.09077 35925 ft 345 kts 232°
2026-05-07 09:57 39.30861 -74.13049 35922 ft 345 kts 232°
2026-05-07 09:58 39.27179 -74.17060 35921 ft 347 kts 232°
2026-05-07 09:58 39.23488 -74.21073 35934 ft 347 kts 232°
2026-05-07 09:59 39.19793 -74.25087 35961 ft 348 kts 232°
2026-05-07 09:59 39.16117 -74.29078 35960 ft 348 kts 232°
2026-05-07 10:00 39.12409 -74.33098 35961 ft 348 kts 232°
2026-05-07 10:00 39.08699 -74.37113 35960 ft 348 kts 232°
2026-05-07 10:01 39.04985 -74.41127 35929 ft 348 kts 232°
2026-05-07 10:01 39.01298 -74.45107 35886 ft 349 kts 232°
2026-05-07 10:02 38.97573 -74.49117 35874 ft 350 kts 232°
2026-05-07 10:02 38.93851 -74.53148 35875 ft 349 kts 233°
2026-05-07 10:03 38.90253 -74.57346 35887 ft 350 kts 233°
2026-05-07 10:03 38.86684 -74.61555 35941 ft 351 kts 233°
2026-05-07 10:04 38.83074 -74.65764 35965 ft 350 kts 233°
2026-05-07 10:04 38.79490 -74.69944 35963 ft 347 kts 233°
2026-05-07 10:05 38.75937 -74.74096 35932 ft 345 kts 233°
2026-05-07 10:05 38.72281 -74.78059 35889 ft 348 kts 231°
2026-05-07 10:06 38.68516 -74.81948 35887 ft 348 kts 231°
2026-05-07 10:06 38.64756 -74.85857 35884 ft 349 kts 231°
2026-05-07 10:07 38.60985 -74.89787 35884 ft 351 kts 231°
2026-05-07 10:07 38.57205 -74.93710 35902 ft 354 kts 230°
2026-05-07 10:08 38.53372 -74.97686 35958 ft 355 kts 231°
2026-05-07 10:08 38.49656 -75.01775 35980 ft 351 kts 232°
2026-05-07 10:09 38.45943 -75.05824 35972 ft 353 kts 230°
2026-05-07 10:09 38.42031 -75.09567 35944 ft 354 kts 229°
2026-05-07 10:10 38.38072 -75.13288 35900 ft 353 kts 229°
2026-05-07 10:10 38.34142 -75.17026 35886 ft 352 kts 229°
2026-05-07 10:11 38.30207 -75.20759 35886 ft 353 kts 229°
2026-05-07 10:11 38.26292 -75.24466 35887 ft 353 kts 229°
2026-05-07 10:12 38.22346 -75.28198 35925 ft 353 kts 228°
2026-05-07 10:12 38.18409 -75.31917 35974 ft 352 kts 228°
2026-05-07 10:13 38.14470 -75.35628 35953 ft 352 kts 228°
2026-05-07 10:13 38.10566 -75.39305 35911 ft 352 kts 228°
2026-05-07 10:14 38.06632 -75.43004 35870 ft 352 kts 228°
2026-05-07 10:14 38.02618 -75.46618 35869 ft 355 kts 226°
2026-05-07 10:15 37.98523 -75.50181 35867 ft 359 kts 226°
2026-05-07 10:15 37.94415 -75.53762 35867 ft 363 kts 226°
2026-05-07 10:16 37.90232 -75.57400 35869 ft 366 kts 226°
2026-05-07 10:16 37.86025 -75.61053 35914 ft 367 kts 226°
2026-05-07 10:17 37.81513 -75.64274 35966 ft 379 kts 218°
2026-05-07 10:17 37.76693 -75.66956 35962 ft 381 kts 217°
2026-05-07 10:18 37.71855 -75.69648 35956 ft 379 kts 218°
2026-05-07 10:18 37.67055 -75.72405 35920 ft 379 kts 218°
2026-05-07 10:19 37.62244 -75.75139 35880 ft 380 kts 217°
2026-05-07 10:19 37.57410 -75.77870 35879 ft 381 kts 217°
2026-05-07 10:20 37.52598 -75.80598 35892 ft 382 kts 217°
2026-05-07 10:20 37.47733 -75.83346 35923 ft 384 kts 217°
2026-05-07 10:21 37.42853 -75.86101 35967 ft 385 kts 217°
2026-05-07 10:21 37.37960 -75.88855 35952 ft 386 kts 217°
2026-05-07 10:22 37.33090 -75.91592 35918 ft 386 kts 217°
2026-05-07 10:22 37.28183 -75.94353 35878 ft 387 kts 217°
2026-05-07 10:23 37.23257 -75.97112 35862 ft 388 kts 217°
2026-05-07 10:23 37.18314 -75.99880 35862 ft 391 kts 216°
2026-05-07 10:24 37.13372 -76.02649 35873 ft 393 kts 216°
2026-05-07 10:24 37.08559 -76.05740 35930 ft 387 kts 220°
2026-05-07 10:25 37.03855 -76.09031 35935 ft 388 kts 220°
2026-05-07 10:25 36.99121 -76.12319 35937 ft 390 kts 219°
2026-05-07 10:26 36.94389 -76.15564 35905 ft 391 kts 219°
2026-05-07 10:26 36.89610 -76.18848 35862 ft 393 kts 219°
2026-05-07 10:27 36.84819 -76.22145 35858 ft 394 kts 219°
2026-05-07 10:27 36.80001 -76.25452 35858 ft 396 kts 219°
2026-05-07 10:28 36.75147 -76.28774 35862 ft 399 kts 219°
2026-05-07 10:28 36.70295 -76.32093 35888 ft 401 kts 219°
2026-05-07 10:29 36.65395 -76.35436 35946 ft 402 kts 218°
2026-05-07 10:29 36.60489 -76.38785 35957 ft 402 kts 218°
2026-05-07 10:30 36.53150 -76.43781 35950 ft 403 kts 218°
2026-05-07 10:30 36.48225 -76.47126 35911 ft 404 kts 218°
2026-05-07 10:31 36.43292 -76.50479 35886 ft 404 kts 218°
2026-05-07 10:31 36.38349 -76.53827 35877 ft 405 kts 218°
2026-05-07 10:32 36.33394 -76.57176 35874 ft 406 kts 218°
2026-05-07 10:32 36.28458 -76.60511 35880 ft 407 kts 218°
2026-05-07 10:33 36.23486 -76.63867 35929 ft 407 kts 218°
2026-05-07 10:33 36.18520 -76.67215 35971 ft 406 kts 218°
2026-05-07 10:34 36.13564 -76.70547 35972 ft 405 kts 218°
2026-05-07 10:34 36.08615 -76.73870 35953 ft 405 kts 218°
2026-05-07 10:35 36.03667 -76.77187 35911 ft 405 kts 218°
2026-05-07 10:35 35.98748 -76.80484 35885 ft 405 kts 217°
2026-05-07 10:36 35.93753 -76.83828 35920 ft 413 kts 217°
2026-05-07 10:36 35.88648 -76.87129 35929 ft 415 kts 216°
2026-05-07 10:37 35.83475 -76.90299 35937 ft 415 kts 215°
2026-05-07 10:37 35.78341 -76.93456 35939 ft 415 kts 216°
2026-05-07 10:38 35.73185 -76.96639 35946 ft 415 kts 216°
2026-05-07 10:38 35.68021 -76.99811 35948 ft 415 kts 216°
2026-05-07 10:39 35.62859 -77.02975 35979 ft 414 kts 215°
2026-05-07 10:39 35.57705 -77.06130 35975 ft 414 kts 215°
2026-05-07 10:40 35.52592 -77.09257 35972 ft 413 kts 215°
2026-05-07 10:40 35.47443 -77.12399 35949 ft 413 kts 215°
2026-05-07 10:41 35.42292 -77.15542 35907 ft 414 kts 215°
2026-05-07 10:41 35.37136 -77.18682 35890 ft 414 kts 215°
2026-05-07 10:42 35.32008 -77.21798 35895 ft 415 kts 215°
2026-05-07 10:42 35.26834 -77.24943 35912 ft 415 kts 215°
2026-05-07 10:43 35.21655 -77.28082 35961 ft 415 kts 215°
2026-05-07 10:43 35.16484 -77.31216 36002 ft 415 kts 215°
2026-05-07 10:44 35.11336 -77.34330 35981 ft 416 kts 215°
2026-05-07 10:44 35.06137 -77.37466 35965 ft 417 kts 215°
2026-05-07 10:45 35.00927 -77.40606 35924 ft 418 kts 215°
2026-05-07 10:45 34.95707 -77.43748 35933 ft 419 kts 215°
2026-05-07 10:46 34.90473 -77.46894 35937 ft 420 kts 215°
2026-05-07 10:46 34.85261 -77.50025 35946 ft 421 kts 215°
2026-05-07 10:47 34.80000 -77.53181 35978 ft 422 kts 215°
2026-05-07 10:47 34.74722 -77.56342 35955 ft 424 kts 215°
2026-05-07 10:48 34.69462 -77.59482 35984 ft 424 kts 215°
2026-05-07 10:48 34.64163 -77.62643 35992 ft 425 kts 215°
2026-05-07 10:49 34.58846 -77.65815 35952 ft 427 kts 215°
2026-05-07 10:49 34.54193 -77.68002 35955 ft 441 kts 204°
2026-05-07 10:50 34.48141 -77.69570 35934 ft 447 kts 200°
2026-05-07 10:50 34.41036 -77.71241 35935 ft 447 kts 201°
2026-05-07 10:51 34.35985 -77.72562 35973 ft 447 kts 202°
2026-05-07 10:51 34.29894 -77.74150 35982 ft 448 kts 201°
2026-05-07 10:52 34.23780 -77.75676 36021 ft 449 kts 201°
2026-05-07 10:52 34.17671 -77.77216 36025 ft 449 kts 201°
2026-05-07 10:53 34.11602 -77.78761 36025 ft 449 kts 201°
2026-05-07 10:53 34.05492 -77.80303 36028 ft 448 kts 201°
2026-05-07 10:54 33.99388 -77.81842 36015 ft 448 kts 201°
2026-05-07 10:54 33.93275 -77.83384 35973 ft 449 kts 201°
2026-05-07 10:55 33.87197 -77.84912 35945 ft 449 kts 201°
2026-05-07 10:55 33.81075 -77.86448 35943 ft 450 kts 201°
2026-05-07 10:56 33.75049 -77.88290 35961 ft 445 kts 205°
2026-05-07 10:56 33.69111 -77.90347 35985 ft 444 kts 206°
2026-05-07 10:57 33.63161 -77.92386 35991 ft 445 kts 205°
2026-05-07 10:57 33.57239 -77.94375 36013 ft 445 kts 205°
2026-05-07 10:58 33.51281 -77.96390 36024 ft 445 kts 205°
2026-05-07 10:58 33.45321 -77.98412 36019 ft 445 kts 205°
2026-05-07 10:59 33.39361 -78.00419 36018 ft 445 kts 205°
2026-05-07 10:59 33.33435 -78.02414 36029 ft 445 kts 205°
2026-05-07 11:00 33.27476 -78.04423 36013 ft 445 kts 205°
2026-05-07 11:00 33.21516 -78.06425 35983 ft 445 kts 205°
2026-05-07 11:01 33.15542 -78.08424 35960 ft 446 kts 205°
2026-05-07 11:01 33.09604 -78.10420 35936 ft 447 kts 205°
2026-05-07 11:02 33.03617 -78.12422 35960 ft 447 kts 204°
2026-05-07 11:02 32.97634 -78.14417 35979 ft 447 kts 204°
2026-05-07 11:03 32.91649 -78.16419 35965 ft 447 kts 204°
2026-05-07 11:03 32.85686 -78.18407 35954 ft 448 kts 204°
2026-05-07 11:04 32.79674 -78.20404 35966 ft 449 kts 204°
2026-05-07 11:04 32.73663 -78.22395 35987 ft 448 kts 204°
2026-05-07 11:05 32.67647 -78.24395 35977 ft 449 kts 204°
2026-05-07 11:05 32.61659 -78.26384 35971 ft 450 kts 204°
2026-05-07 11:06 32.55627 -78.28373 35995 ft 450 kts 204°
2026-05-07 11:06 32.49596 -78.30369 36007 ft 450 kts 204°
2026-05-07 11:07 32.43568 -78.32357 36047 ft 450 kts 204°
2026-05-07 11:07 32.37576 -78.34332 36010 ft 450 kts 204°
2026-05-07 11:08 32.31540 -78.36317 35969 ft 451 kts 204°
2026-05-07 11:08 32.25536 -78.38288 35955 ft 451 kts 204°
2026-05-07 11:09 32.19490 -78.40274 35957 ft 451 kts 204°
2026-05-07 11:09 32.13480 -78.42242 35978 ft 451 kts 204°
2026-05-07 11:10 32.07431 -78.44222 35994 ft 451 kts 204°
2026-05-07 11:10 32.01383 -78.46196 36011 ft 451 kts 204°
2026-05-07 11:11 31.95329 -78.48164 36013 ft 452 kts 204°
2026-05-07 11:11 31.89311 -78.50128 35975 ft 453 kts 204°
2026-05-07 11:12 31.83234 -78.52110 35966 ft 453 kts 204°
2026-05-07 11:12 31.77144 -78.54085 35968 ft 454 kts 203°
2026-05-07 11:13 31.71042 -78.56055 36006 ft 455 kts 203°
2026-05-07 11:13 31.64946 -78.58030 36053 ft 454 kts 204°
2026-05-07 11:14 31.58887 -78.59991 36055 ft 455 kts 203°
2026-05-07 11:14 31.52783 -78.61963 36056 ft 455 kts 204°
2026-05-07 11:15 31.46723 -78.64051 36056 ft 453 kts 205°
2026-05-07 11:15 31.40681 -78.66170 36048 ft 454 kts 204°
2026-05-07 11:16 31.34654 -78.68217 36030 ft 454 kts 204°
2026-05-07 11:16 31.28585 -78.70272 36020 ft 454 kts 204°
2026-05-07 11:17 31.22514 -78.72351 35997 ft 455 kts 204°
2026-05-07 11:17 31.16436 -78.74429 35987 ft 455 kts 204°
2026-05-07 11:18 31.10390 -78.76479 35997 ft 456 kts 204°
2026-05-07 11:18 31.04299 -78.78538 36010 ft 456 kts 204°
2026-05-07 11:19 30.98214 -78.80611 36027 ft 455 kts 204°
2026-05-07 11:19 30.92129 -78.82676 36033 ft 456 kts 204°
2026-05-07 11:20 30.86068 -78.84721 35998 ft 457 kts 204°
2026-05-07 11:20 30.79958 -78.86784 36000 ft 457 kts 204°
2026-05-07 11:21 30.73846 -78.88838 36006 ft 457 kts 204°
2026-05-07 11:21 30.67736 -78.90896 36013 ft 457 kts 204°
2026-05-07 11:22 30.61667 -78.92936 36025 ft 457 kts 204°
2026-05-07 11:22 30.55547 -78.94985 36001 ft 458 kts 204°
2026-05-07 11:23 30.49418 -78.97046 36016 ft 458 kts 204°
2026-05-07 11:23 30.43290 -78.99093 36047 ft 458 kts 203°
2026-05-07 11:24 30.37110 -79.00825 36088 ft 461 kts 200°
2026-05-07 11:24 30.30852 -79.02456 36095 ft 461 kts 200°
2026-05-07 11:25 30.24593 -79.04087 36098 ft 461 kts 200°
2026-05-07 11:25 30.18333 -79.05722 36099 ft 461 kts 200°
2026-05-07 11:26 30.12119 -79.07354 36076 ft 462 kts 200°
2026-05-07 11:26 30.05851 -79.08980 36075 ft 462 kts 200°
2026-05-07 11:27 29.99579 -79.10599 36070 ft 461 kts 200°
2026-05-07 11:27 29.93315 -79.12236 36040 ft 462 kts 200°
2026-05-07 11:28 29.87024 -79.13864 36004 ft 464 kts 200°
2026-05-07 11:28 29.80771 -79.15487 36014 ft 464 kts 200°
2026-05-07 11:29 29.74461 -79.17100 36051 ft 464 kts 200°
2026-05-07 11:29 29.68149 -79.18700 36087 ft 464 kts 200°
2026-05-07 11:30 29.61840 -79.20311 36096 ft 465 kts 200°
2026-05-07 11:30 29.55572 -79.21912 36095 ft 465 kts 200°
2026-05-07 11:31 29.49262 -79.23513 36094 ft 464 kts 200°
2026-05-07 11:31 29.42950 -79.25116 36066 ft 465 kts 200°
2026-05-07 11:32 29.33478 -79.27520 36012 ft 465 kts 199°
2026-05-07 11:33 29.27196 -79.29102 36012 ft 465 kts 200°
2026-05-07 11:33 29.20870 -79.30705 36020 ft 466 kts 199°
2026-05-07 11:34 29.14544 -79.32299 36046 ft 465 kts 199°
2026-05-07 11:34 29.08222 -79.33899 36063 ft 465 kts 199°
2026-05-07 11:35 29.01930 -79.35486 36037 ft 467 kts 199°
2026-05-07 11:35 28.95585 -79.37070 36048 ft 466 kts 199°
2026-05-07 11:36 28.89251 -79.38671 36055 ft 466 kts 199°
2026-05-07 11:36 28.82911 -79.40256 36064 ft 466 kts 199°
2026-05-07 11:37 28.76617 -79.41840 36067 ft 466 kts 199°
2026-05-07 11:37 28.70267 -79.43425 36029 ft 468 kts 199°
2026-05-07 11:38 28.63913 -79.45005 36029 ft 467 kts 199°
2026-05-07 11:38 28.57609 -79.46590 35948 ft 466 kts 199°
2026-05-07 11:38 28.54444 -79.47385 35613 ft 465 kts 199°
2026-05-07 11:39 28.51281 -79.48176 35367 ft 466 kts 199°
2026-05-07 11:39 28.48111 -79.48962 35121 ft 467 kts 199°
2026-05-07 11:39 28.44933 -79.49744 34876 ft 468 kts 199°
2026-05-07 11:39 28.41753 -79.50526 34630 ft 468 kts 199°
2026-05-07 11:40 28.38568 -79.51318 34384 ft 469 kts 199°
2026-05-07 11:40 28.35378 -79.52115 34138 ft 470 kts 199°
2026-05-07 11:40 28.32230 -79.52900 33828 ft 470 kts 199°
2026-05-07 11:40 28.29036 -79.53718 33266 ft 470 kts 200°
2026-05-07 11:41 28.25861 -79.54577 32656 ft 469 kts 200°
2026-05-07 11:41 28.22686 -79.55451 31976 ft 470 kts 200°
2026-05-07 11:41 28.19500 -79.56328 31259 ft 472 kts 200°
2026-05-07 11:41 28.16299 -79.57199 30537 ft 473 kts 200°
2026-05-07 11:42 28.13094 -79.58070 29800 ft 474 kts 200°
2026-05-07 11:42 28.09880 -79.58947 29041 ft 475 kts 200°
2026-05-07 11:42 28.06708 -79.59812 28297 ft 476 kts 200°
2026-05-07 11:42 28.03490 -79.60686 27521 ft 476 kts 200°
2026-05-07 11:43 28.00264 -79.61563 26651 ft 478 kts 200°
2026-05-07 11:43 27.97026 -79.62442 25804 ft 478 kts 199°
2026-05-07 11:43 27.93796 -79.63318 25052 ft 476 kts 199°
2026-05-07 11:43 27.90579 -79.64184 24280 ft 474 kts 199°
2026-05-07 11:44 27.87379 -79.65041 23530 ft 471 kts 199°
2026-05-07 11:44 27.84203 -79.65899 22801 ft 467 kts 199°
2026-05-07 11:44 27.81094 -79.66748 22049 ft 464 kts 199°
2026-05-07 11:44 27.77967 -79.67596 21312 ft 460 kts 198°
2026-05-07 11:45 27.74868 -79.68431 20591 ft 456 kts 198°
2026-05-07 11:45 27.71803 -79.69259 19875 ft 451 kts 198°
2026-05-07 11:45 27.68760 -79.70078 19128 ft 447 kts 197°
2026-05-07 11:45 27.65750 -79.70892 18422 ft 442 kts 197°
2026-05-07 11:46 27.62779 -79.71697 17720 ft 437 kts 197°
2026-05-07 11:46 27.59833 -79.72491 17009 ft 433 kts 197°
2026-05-07 11:46 27.56955 -79.73266 16288 ft 430 kts 196°
2026-05-07 11:46 27.54054 -79.74044 15503 ft 427 kts 196°
2026-05-07 11:47 27.51197 -79.74814 15032 ft 416 kts 196°
2026-05-07 11:47 27.48440 -79.75551 14822 ft 399 kts 195°
2026-05-07 11:47 27.45794 -79.76253 14642 ft 383 kts 195°
2026-05-07 11:47 27.43259 -79.76931 14482 ft 367 kts 195°
2026-05-07 11:48 27.40821 -79.77592 14340 ft 353 kts 195°
2026-05-07 11:48 27.38479 -79.78223 14218 ft 340 kts 195°
2026-05-07 11:48 27.36251 -79.78820 14091 ft 328 kts 195°
2026-05-07 11:48 27.34068 -79.79406 13924 ft 319 kts 195°
2026-05-07 11:49 27.31921 -79.79985 13428 ft 317 kts 195°
2026-05-07 11:49 27.29776 -79.80564 12849 ft 317 kts 195°
2026-05-07 11:49 27.27648 -79.81134 12361 ft 313 kts 194°
2026-05-07 11:49 27.25535 -79.81698 11859 ft 310 kts 194°
2026-05-07 11:50 27.23437 -79.82258 11316 ft 309 kts 194°
2026-05-07 11:50 27.21388 -79.82820 10824 ft 306 kts 197°
2026-05-07 11:50 27.19425 -79.83723 10326 ft 303 kts 206°
2026-05-07 11:50 27.17555 -79.84816 9760 ft 303 kts 209°
2026-05-07 11:51 27.15711 -79.85970 9192 ft 303 kts 209°
2026-05-07 11:51 27.13873 -79.87124 8655 ft 302 kts 208°
2026-05-07 11:51 27.12046 -79.88238 8258 ft 295 kts 208°
2026-05-07 11:51 27.10236 -79.89317 7715 ft 294 kts 207°
2026-05-07 11:52 27.08438 -79.90373 7294 ft 289 kts 207°
2026-05-07 11:52 27.06688 -79.91406 6760 ft 288 kts 208°
2026-05-07 11:52 27.04934 -79.92452 6282 ft 284 kts 208°
2026-05-07 11:52 27.03195 -79.93485 5804 ft 281 kts 208°
2026-05-07 11:53 27.01485 -79.94500 5394 ft 275 kts 207°
2026-05-07 11:53 26.99814 -79.95494 5023 ft 270 kts 208°
2026-05-07 11:53 26.98147 -79.96488 4657 ft 273 kts 207°
2026-05-07 11:53 26.96468 -79.97486 4321 ft 272 kts 207°
2026-05-07 11:54 26.94841 -79.98536 4040 ft 269 kts 213°
2026-05-07 11:54 26.93373 -79.99745 4011 ft 265 kts 217°
2026-05-07 11:54 26.91927 -80.01038 4015 ft 266 kts 218°
2026-05-07 11:54 26.90479 -80.02329 4018 ft 266 kts 217°
2026-05-07 11:55 26.89012 -80.03594 4020 ft 266 kts 216°
2026-05-07 11:55 26.87534 -80.04841 4023 ft 266 kts 216°
2026-05-07 11:55 26.86059 -80.06096 4029 ft 266 kts 217°
2026-05-07 11:55 26.84593 -80.07362 4034 ft 266 kts 217°
2026-05-07 11:56 26.83133 -80.08632 4038 ft 263 kts 217°
2026-05-07 11:56 26.81752 -80.09847 4024 ft 249 kts 218°
2026-05-07 11:56 26.80661 -80.11265 3999 ft 236 kts 244°
2026-05-07 11:56 26.80333 -80.13013 4006 ft 227 kts 267°
2026-05-07 11:57 26.80327 -80.14779 4018 ft 227 kts 269°
2026-05-07 11:57 26.80276 -80.16541 4027 ft 227 kts 265°
2026-05-07 11:57 26.80132 -80.18300 4031 ft 227 kts 263°
2026-05-07 11:57 26.79973 -80.20055 4032 ft 227 kts 263°
2026-05-07 11:58 26.79827 -80.21810 4036 ft 227 kts 263°
2026-05-07 11:58 26.79679 -80.23533 3933 ft 219 kts 263°
2026-05-07 11:58 26.79534 -80.25200 3666 ft 218 kts 262°
2026-05-07 11:58 26.79363 -80.26884 3391 ft 217 kts 261°
2026-05-07 11:59 26.79187 -80.28555 3117 ft 216 kts 261°
2026-05-07 11:59 26.79020 -80.30219 3024 ft 216 kts 262°
2026-05-07 11:59 26.78858 -80.31888 3025 ft 216 kts 262°
2026-05-07 11:59 26.78693 -80.33560 3024 ft 216 kts 262°
2026-05-07 12:00 26.78523 -80.35228 3023 ft 216 kts 260°
2026-05-07 12:00 26.78052 -80.36771 3011 ft 212 kts 233°
2026-05-07 12:00 26.76963 -80.37836 3022 ft 209 kts 203°
2026-05-07 12:00 26.75555 -80.38158 3026 ft 208 kts 177°
2026-05-07 12:01 26.74172 -80.37734 3031 ft 208 kts 154°
2026-05-07 12:01 26.72955 -80.36945 3030 ft 197 kts 149°
2026-05-07 12:01 26.71797 -80.36179 3028 ft 192 kts 152°
2026-05-07 12:01 26.70617 -80.35477 3025 ft 192 kts 152°
2026-05-07 12:02 26.69621 -80.34507 3005 ft 194 kts 120°
2026-05-07 12:02 26.69272 -80.33070 3022 ft 198 kts 96°
2026-05-07 12:02 26.69205 -80.31531 3021 ft 198 kts 94°
2026-05-07 12:02 26.69163 -80.29993 3024 ft 198 kts 94°
2026-05-07 12:03 26.69095 -80.28453 3017 ft 198 kts 95°
2026-05-07 12:03 26.69016 -80.26918 2849 ft 198 kts 95°
2026-05-07 12:03 26.68951 -80.25387 2615 ft 197 kts 94°
2026-05-07 12:03 26.68890 -80.23868 2411 ft 191 kts 94°
2026-05-07 12:04 26.68825 -80.22426 2140 ft 181 kts 94°
2026-05-07 12:04 26.68766 -80.21078 1897 ft 171 kts 94°
2026-05-07 12:04 26.68711 -80.19780 1667 ft 163 kts 94°
2026-05-07 12:04 26.68657 -80.18557 1462 ft 151 kts 94°
2026-05-07 12:05 26.68607 -80.17431 1262 ft 140 kts 93°
2026-05-07 12:05 26.68561 -80.16346 1082 ft 139 kts 93°
2026-05-07 12:05 26.68519 -80.15266 919 ft 139 kts 93°
2026-05-07 12:05 26.68480 -80.14183 730 ft 139 kts 93°
2026-05-07 12:06 26.68427 -80.13107 508 ft 138 kts 95°
2026-05-07 12:06 26.68373 -80.12031 312 ft 139 kts 94°
2026-05-07 12:06 26.68326 -80.10963 140 ft 140 kts 93°
2026-05-07 12:06 26.68280 -80.09890 35 ft 130 kts 93°
2026-05-07 12:07 26.68245 -80.09094 34 ft 77 kts 92°
2026-05-07 12:07 26.68225 -80.08676 34 ft 34 kts 92°
2026-05-07 12:07 26.68214 -80.08413 34 ft 34 kts 93°
2026-05-07 12:07 26.68206 -80.08233 34 ft 9 kts 92°
2026-05-07 12:08 26.68246 -80.08181 34 ft 11 kts
2026-05-07 12:08 26.68274 -80.08180 34 ft 0 kts
2026-05-07 12:08 26.68285 -80.08179 34 ft 3 kts
2026-05-07 12:08 26.68311 -80.08189 34 ft 6 kts 313°
2026-05-07 12:09 26.68322 -80.08260 34 ft 11 kts 271°
2026-05-07 12:09 26.68324 -80.08356 34 ft 14 kts 273°
2026-05-07 12:09 26.68331 -80.08471 34 ft 16 kts 274°
2026-05-07 12:09 26.68339 -80.08606 34 ft 19 kts 273°
2026-05-07 12:10 26.68346 -80.08705 34 ft 8 kts 297°
2026-05-07 12:10 26.68402 -80.08720 34 ft 5 kts
2026-05-07 12:10 26.68433 -80.08732 34 ft 6 kts 300°
2026-05-07 12:10 26.68442 -80.08785 34 ft 8 kts 273°
2026-05-07 12:11 26.68445 -80.08859 34 ft 11 kts 272°
2026-05-07 12:11 26.68457 -80.08932 34 ft 8 kts 320°
2026-05-07 12:11 26.68514 -80.08934 34 ft 6 kts
2026-05-07 12:11 26.68522 -80.08933 34 ft 0 kts